This demonstration page uses our WeatherBlox Daily Observations layout. Learn more.

Left ArrowRight Arrow

38.89511, -77.03637

Hourly Observations for June 25, 2022

Temp ( °F °C ) Dew Point ( °F °C ) Humidity (%) Winds ( mph kmh ) Pressure ( in mb ) Visibility ( mi km ) Precip ( " mm )
12:52 am 00:52 Mostly Clear 71 21.7 63 17.2 76 76 SW 7 11 30.10 1019 10 16 0.00 0.00
1:52 am 01:52 Mostly Clear 71 21.7 65 18.3 81 81 S 6 9 30.11 1020 10 16 0.00 0.00
2:52 am 02:52 Mostly Cloudy 70 21.1 64 17.8 82 82 S 6 9 30.11 1020 10 16 0.00 0.00
3:52 am 03:52 Mostly Cloudy 69 20.6 64 17.8 84 84 SW 6 9 30.11 1020 10 16 0.00 0.00
4:52 am 04:52 Mostly Cloudy 69 20.6 64 17.8 84 84 SSW 5 7 30.11 1020 10 16 0.00 0.00
5:52 am 05:52 Mostly Cloudy 69 20.6 65 18.3 87 87 S 6 9 30.13 1020 10 16 0.00 0.00
6:52 am 06:52 Mostly Cloudy 70 21.1 65 18.3 84 84 SE 3 6 30.14 1021 10 16 0.00 0.00
7:52 am 07:52 Mostly Cloudy 72 22.2 66 18.9 82 82 S 7 11 30.14 1021 10 16 0.00 0.00
8:52 am 08:52 Mostly Cloudy 74 23.3 67 19.4 79 79 SSE 7 11 30.16 1021 10 16 0.00 0.00
9:52 am 09:52 Partly Cloudy 78 25.6 68 20 71 71 SSE 7 11 30.16 1021 10 16 0.00 0.00
10:52 am 10:52 Partly Cloudy 80 26.7 68 20 67 67 S 10 17 30.16 1021 10 16 0.00 0.00
11:52 am 11:52 Partly Cloudy 83 28.3 67 19.4 59 59 SSE 12 19 30.15 1021 10 16 0.00 0.00
12:52 pm 12:52 Partly Cloudy 84 28.9 68 20 59 59 S 9 15 30.14 1021 10 16 0.00 0.00
1:52 pm 13:52 Mostly Cloudy 83 28.3 68 20 61 61 SSE 10 17 30.13 1020 10 16 0.00 0.00
2:52 pm 14:52 Partly Cloudy 86 30 68 20 55 55 S 12 19 30.11 1020 10 16 0.00 0.00
3:52 pm 15:52 Partly Cloudy 87 30.6 67 19.4 51 51 S 10 17 30.10 1019 10 16 0.00 0.00
4:52 pm 16:52 Partly Cloudy 87 30.6 67 19.4 51 51 S 10 17 30.09 1019 10 16 0.00 0.00
5:52 pm 17:52 Mostly Sunny 86 30 66 18.9 51 51 S 9 15 30.08 1019 10 16 0.00 0.00
6:52 pm 18:52 Mostly Sunny 85 29.4 68 20 57 57 S 9 15 30.09 1019 10 16 0.00 0.00
7:52 pm 19:52 Mostly Sunny 83 28.3 66 18.9 57 57 S 10 17 30.09 1019 10 16 0.00 0.00
8:52 pm 20:52 Mostly Clear 81 27.2 68 20 65 65 S 7 11 30.10 1019 10 16 0.00 0.00
9:52 pm 21:52 Clear 79 26.1 67 19.4 67 67 SSE 8 13 30.11 1020 10 16 0.00 0.00
10:52 pm 22:52 Partly Cloudy 78 25.6 67 19.4 69 69 S 12 19 30.13 1020 10 16 0.00 0.00
11:52 pm 23:52 Partly Cloudy 77 25 66 18.9 69 69 S 12 19 30.14 1021 10 16 0.00 0.00

Powered by AerisWeather